TimeCDT,TemperatureF,Dew PointF,Humidity,Sea Level PressureIn,VisibilityMPH,Wind Direction,Wind SpeedMPH,Gust SpeedMPH,PrecipitationIn,Events,Conditions,WindDirDegrees,DateUTC
12:53 AM,64.0,57.0,78,29.71,10.0,West,6.9,-,N/A,,Clear,260,2013-06-28 05:53:00
1:53 AM,64.0,57.0,78,29.70,10.0,WSW,4.6,-,N/A,,Clear,250,2013-06-28 06:53:00
2:53 AM,62.1,57.9,86,29.69,10.0,SW,4.6,-,N/A,,Overcast,220,2013-06-28 07:53:00
3:53 AM,62.1,57.9,86,29.68,10.0,WSW,3.5,-,N/A,,Overcast,240,2013-06-28 08:53:00
4:06 AM,62.6,57.2,82,29.68,10.0,WSW,4.6,-,N/A,,Overcast,240,2013-06-28 09:06:00
4:19 AM,62.6,57.2,82,29.68,10.0,WSW,5.8,-,N/A,,Overcast,250,2013-06-28 09:19:00
4:53 AM,63.0,57.9,84,29.68,10.0,West,4.6,-,N/A,,Overcast,260,2013-06-28 09:53:00
5:53 AM,62.1,60.1,93,29.68,9.0,West,5.8,-,N/A,,Overcast,270,2013-06-28 10:53:00
6:32 AM,62.6,60.8,94,29.69,10.0,West,5.8,-,N/A,,Overcast,280,2013-06-28 11:32:00
6:53 AM,64.0,61.0,90,29.68,10.0,West,4.6,-,N/A,,Overcast,270,2013-06-28 11:53:00
7:40 AM,64.4,60.8,88,29.69,10.0,West,4.6,-,N/A,,Overcast,280,2013-06-28 12:40:00
7:53 AM,64.0,61.0,90,29.68,4.0,WNW,5.8,-,0.00,Rain,Light Rain,290,2013-06-28 12:53:00
8:07 AM,64.4,60.8,88,29.69,9.0,WNW,8.1,-,0.00,,Overcast,290,2013-06-28 13:07:00
8:40 AM,64.4,62.6,94,29.68,10.0,West,6.9,-,0.01,,Overcast,280,2013-06-28 13:40:00
8:53 AM,66.0,62.1,87,29.68,10.0,Variable,5.8,-,0.01,,Overcast,0,2013-06-28 13:53:00
9:05 AM,66.2,62.6,88,29.68,10.0,NW,5.8,-,N/A,,Overcast,310,2013-06-28 14:05:00
9:23 AM,66.2,60.8,83,29.69,10.0,NW,10.4,-,N/A,,Overcast,310,2013-06-28 14:23:00
9:53 AM,66.9,62.1,84,29.69,10.0,NW,9.2,-,N/A,,Overcast,310,2013-06-28 14:53:00
10:17 AM,66.2,62.6,88,29.69,8.0,NW,6.9,-,0.00,Rain,Light Rain,310,2013-06-28 15:17:00
10:53 AM,66.9,62.1,84,29.69,10.0,North,9.2,-,0.00,,Overcast,350,2013-06-28 15:53:00
11:00 AM,68.0,62.6,83,29.70,10.0,North,9.2,-,N/A,,Overcast,360,2013-06-28 16:00:00
11:10 AM,68.0,62.6,83,29.70,10.0,NNW,6.9,-,N/A,,Overcast,340,2013-06-28 16:10:00
11:17 AM,68.0,62.6,83,29.70,10.0,North,8.1,-,N/A,,Overcast,350,2013-06-28 16:17:00
11:53 AM,66.9,62.1,84,29.71,10.0,NNE,12.7,-,0.00,,Overcast,30,2013-06-28 16:53:00
12:04 PM,64.4,62.6,94,29.72,6.0,NNE,12.7,20.7,N/A,,Overcast,30,2013-06-28 17:04:00
12:20 PM,66.2,62.6,88,29.72,5.0,NNE,13.8,-,0.00,Rain,Light Rain,30,2013-06-28 17:20:00
12:53 PM,66.0,63.0,90,29.73,10.0,NNE,13.8,-,0.01,,Overcast,30,2013-06-28 17:53:00
1:53 PM,68.0,61.0,78,29.74,10.0,NNE,10.4,-,N/A,,Overcast,20,2013-06-28 18:53:00
1:58 PM,68.0,62.6,83,29.74,10.0,NNE,8.1,-,N/A,,Overcast,30,2013-06-28 18:58:00
2:08 PM,66.2,60.8,83,29.74,9.0,NE,10.4,-,0.00,Rain,Light Rain,40,2013-06-28 19:08:00
2:17 PM,64.4,60.8,88,29.75,10.0,NNE,6.9,-,0.00,Rain,Light Rain,30,2013-06-28 19:17:00
2:53 PM,62.1,57.9,86,29.75,10.0,NE,9.2,-,0.00,,Overcast,50,2013-06-28 19:53:00
3:51 PM,64.4,57.2,77,29.76,10.0,NNE,9.2,-,N/A,,Overcast,20,2013-06-28 20:51:00
3:53 PM,64.0,57.9,80,29.76,10.0,NNE,10.4,-,N/A,,Overcast,20,2013-06-28 20:53:00
4:02 PM,62.6,57.2,82,29.76,10.0,NNE,9.2,-,N/A,,Overcast,20,2013-06-28 21:02:00
4:11 PM,64.4,59.0,83,29.76,10.0,NE,6.9,-,N/A,,Overcast,40,2013-06-28 21:11:00
4:53 PM,64.9,59.0,81,29.77,10.0,NNE,9.2,-,N/A,,Overcast,20,2013-06-28 21:53:00
5:23 PM,64.4,59.0,83,29.76,10.0,NNE,6.9,-,N/A,,Overcast,20,2013-06-28 22:23:00
5:53 PM,66.9,60.1,79,29.77,10.0,NNE,4.6,-,N/A,,Mostly Cloudy,20,2013-06-28 22:53:00
6:09 PM,64.4,59.0,83,29.77,10.0,NNE,5.8,-,N/A,,Mostly Cloudy,30,2013-06-28 23:09:00
6:53 PM,63.0,57.9,84,29.78,10.0,NNE,8.1,-,N/A,,Scattered Clouds,30,2013-06-28 23:53:00
7:53 PM,57.9,55.0,90,29.80,10.0,NNE,6.9,-,N/A,,Clear,30,2013-06-29 00:53:00
8:53 PM,59.0,55.9,90,29.81,10.0,NE,3.5,-,N/A,,Mostly Cloudy,40,2013-06-29 01:53:00
9:33 PM,57.2,55.4,94,29.82,10.0,Calm,Calm,-,N/A,,Overcast,0,2013-06-29 02:33:00
9:53 PM,59.0,55.9,90,29.82,10.0,Calm,Calm,-,N/A,,Overcast,0,2013-06-29 02:53:00
10:20 PM,59.0,55.4,88,29.81,10.0,Calm,Calm,-,N/A,,Overcast,0,2013-06-29 03:20:00
10:53 PM,59.0,55.9,90,29.81,10.0,Calm,Calm,-,N/A,,Overcast,0,2013-06-29 03:53:00
11:53 PM,57.9,55.9,93,29.80,10.0,Calm,Calm,-,N/A,,Overcast,0,2013-06-29 04:53:00